NORTHEAST SUFFOLK  -  Winter Weather Advisory Winter Weather Advisory        NORTHERN NASSAU  -  Winter Weather Advisory Winter Weather Advisory        NORTHWEST SUFFOLK  -  Winter Weather Advisory Winter Weather Advisory        SOUTHEAST SUFFOLK  -  Winter Weather Advisory Winter Weather Advisory        SOUTHERN NASSAU  -  Winter Weather Advisory Winter Weather Advisory        SOUTHWEST SUFFOLK  -  Winter Weather Advisory Winter Weather Advisory      

Active alerts

Northern Nassau
  Details for Northern Nassau Winter Weather Advisory
Southern Nassau
  Details for Southern Nassau Winter Weather Advisory
Northwest Suffolk
  Details for Northwest Suffolk Winter Weather Advisory
Southwest Suffolk
  Details for Southwest Suffolk Winter Weather Advisory
Northeast Suffolk
  Details for Northeast Suffolk Winter Weather Advisory
Southeast Suffolk
  Details for Southeast Suffolk Winter Weather Advisory


WXM80 ListenWXM80 Stop

You find our weather info also at:

UK Metoffice

WeatherCloud

Weather Underground

Northeastern Weather Network

AWEKAS

Citizen Weather Observer Program (CWOP)

HAMweather, WeatherForYou, PWS Weather


Weather Underground History page Text

Daily Summary for January 14, 2017 Units:  English    Metric   Both
« Previous Day
Next Day »
Daily Weekly Monthly Yearly Custom
  High: Low: Average:
Temperature: 32.4 °F 27.0 °F 29.4 °F
Dew Point: 27.9 °F 14.4 °F 20.1 °F
Humidity: 93 % 48 % 69 %
Wind Speed: 9.0 mph 0.0 mph 2.6 mph
Wind Gust: 16.1 mph - -
Wind:- - ENE
Pressure: 30.69 in 30.28 in -
Precipitation: 0.07 in    
Historical Graphs
 
 
Tabular Data for January 14, 2017
Time Temperature Dew Point Pressure Wind Wind Speed Wind Gust Humidity Rainfall Rate (Hourly)
00:04 31.0 °F 17.9 °F 30.66 in NNE 6.2 mph 13.8 mph 58 % 0.00 in
00:09 31.0 °F 18.3 °F 30.67 in North 4.9 mph 9.2 mph 59 % 0.00 in
00:14 30.9 °F 18.2 °F 30.66 in NNE 6.6 mph 10.4 mph 59 % 0.00 in
00:24 30.8 °F 18.1 °F 30.67 in NNE 5.9 mph 9.2 mph 59 % 0.00 in
00:29 30.6 °F 18.3 °F 30.67 in NE 8.0 mph 12.7 mph 60 % 0.00 in
00:34 30.5 °F 18.3 °F 30.67 in NNE 6.1 mph 9.2 mph 60 % 0.00 in
00:39 30.4 °F 18.5 °F 30.67 in NE 8.2 mph 12.0 mph 61 % 0.00 in
00:44 30.3 °F 18.1 °F 30.67 in NNE 8.4 mph 10.4 mph 60 % 0.00 in
00:49 30.2 °F 18.0 °F 30.67 in NNE 6.6 mph 9.2 mph 60 % 0.00 in
00:55 30.2 °F 18.4 °F 30.67 in NE 6.2 mph 9.0 mph 61 % 0.00 in
01:00 30.1 °F 18.6 °F 30.67 in NE 7.4 mph 11.5 mph 62 % 0.00 in
01:05 30.0 °F 18.5 °F 30.67 in NNE 7.0 mph 11.5 mph 62 % 0.00 in
01:10 29.9 °F 18.5 °F 30.67 in NNE 7.5 mph 9.2 mph 62 % 0.00 in
01:15 29.9 °F 18.1 °F 30.67 in North 6.3 mph 11.5 mph 61 % 0.00 in
01:20 29.8 °F 18.0 °F 30.67 in North 6.9 mph 16.1 mph 61 % 0.00 in
01:25 29.8 °F 18.0 °F 30.67 in North 5.4 mph 11.5 mph 61 % 0.00 in
01:30 29.8 °F 18.4 °F 30.67 in NNE 6.7 mph 9.2 mph 62 % 0.00 in
01:35 29.8 °F 18.7 °F 30.67 in NNW 4.8 mph 10.4 mph 63 % 0.00 in
01:40 29.7 °F 18.3 °F 30.67 in NNE 5.5 mph 6.9 mph 62 % 0.00 in
01:45 29.7 °F 18.3 °F 30.68 in NE 6.0 mph 10.4 mph 62 % 0.00 in
01:50 29.7 °F 17.9 °F 30.68 in NNE 8.7 mph 11.5 mph 61 % 0.00 in
01:56 29.6 °F 17.8 °F 30.68 in North 6.7 mph 11.5 mph 61 % 0.00 in
02:01 29.6 °F 17.8 °F 30.68 in NNE 6.3 mph 10.4 mph 61 % 0.00 in
02:06 29.5 °F 17.3 °F 30.68 in NNE 6.1 mph 11.5 mph 60 % 0.00 in
02:11 29.5 °F 17.3 °F 30.68 in North 5.7 mph 9.2 mph 60 % 0.00 in
02:16 29.5 °F 17.7 °F 30.68 in NNE 3.9 mph 5.8 mph 61 % 0.00 in
02:21 29.4 °F 18.0 °F 30.68 in NNE 5.4 mph 8.1 mph 62 % 0.00 in
02:26 29.4 °F 17.6 °F 30.68 in NNE 6.3 mph 11.5 mph 61 % 0.00 in
02:31 29.4 °F 18.0 °F 30.68 in NE 5.7 mph 12.0 mph 62 % 0.00 in
02:36 29.3 °F 17.5 °F 30.69 in North 7.7 mph 11.5 mph 61 % 0.00 in
02:41 29.3 °F 17.5 °F 30.68 in North 5.7 mph 11.0 mph 61 % 0.00 in
02:46 29.2 °F 17.4 °F 30.69 in NE 6.0 mph 9.2 mph 61 % 0.00 in
02:51 29.2 °F 17.0 °F 30.69 in NE 9.0 mph 13.0 mph 60 % 0.00 in
02:56 29.1 °F 16.5 °F 30.69 in NNE 7.0 mph 10.4 mph 59 % 0.00 in
03:01 29.0 °F 16.8 °F 30.68 in NNE 7.7 mph 11.5 mph 60 % 0.00 in
03:07 29.0 °F 16.8 °F 30.68 in NNE 6.4 mph 7.0 mph 60 % 0.00 in
03:12 28.9 °F 16.7 °F 30.69 in NE 7.5 mph 11.5 mph 60 % 0.00 in
03:17 28.9 °F 16.7 °F 30.68 in NNE 7.9 mph 12.7 mph 60 % 0.00 in
03:22 28.8 °F 16.6 °F 30.68 in NNE 6.8 mph 8.1 mph 60 % 0.00 in
03:27 28.8 °F 17.0 °F 30.68 in NNE 8.0 mph 11.5 mph 61 % 0.00 in
03:32 28.7 °F 16.6 °F 30.68 in NNE 4.1 mph 6.0 mph 60 % 0.00 in
03:37 28.7 °F 16.9 °F 30.68 in NNE 4.7 mph 10.4 mph 61 % 0.00 in
03:42 28.7 °F 17.3 °F 30.68 in NNE 4.3 mph 9.2 mph 62 % 0.00 in
03:47 28.7 °F 16.9 °F 30.68 in North 4.6 mph 8.0 mph 61 % 0.00 in
03:52 28.6 °F 16.8 °F 30.68 in North 6.1 mph 8.1 mph 61 % 0.00 in
03:57 28.6 °F 17.2 °F 30.68 in North 4.1 mph 8.1 mph 62 % 0.00 in
04:02 28.6 °F 17.2 °F 30.68 in NE 6.6 mph 10.4 mph 62 % 0.00 in
04:07 28.6 °F 17.2 °F 30.67 in NNE 5.3 mph 8.1 mph 62 % 0.00 in
04:12 28.6 °F 16.8 °F 30.68 in North 5.4 mph 8.1 mph 61 % 0.00 in
04:17 28.5 °F 16.7 °F 30.68 in NNE 5.9 mph 9.2 mph 61 % 0.00 in
04:22 28.5 °F 17.1 °F 30.68 in NNE 5.7 mph 8.1 mph 62 % 0.00 in
04:27 28.4 °F 17.0 °F 30.68 in NE 3.1 mph 5.8 mph 62 % 0.00 in
04:32 28.4 °F 17.0 °F 30.68 in NE 3.5 mph 6.9 mph 62 % 0.00 in
04:37 28.4 °F 17.0 °F 30.67 in NE 3.0 mph 6.9 mph 62 % 0.00 in
04:42 28.3 °F 16.9 °F 30.67 in NNE 3.2 mph 5.8 mph 62 % 0.00 in
04:47 28.3 °F 16.6 °F 30.67 in NNE 6.0 mph 9.2 mph 61 % 0.00 in
04:52 28.2 °F 16.1 °F 30.67 in NNE 4.1 mph 6.0 mph 60 % 0.00 in
04:57 28.1 °F 16.4 °F 30.67 in NNE 4.3 mph 11.0 mph 61 % 0.00 in
05:02 28.1 °F 16.4 °F 30.67 in NNE 5.9 mph 9.2 mph 61 % 0.00 in
05:08 28.1 °F 16.0 °F 30.67 in NNE 4.4 mph 6.0 mph 60 % 0.00 in
05:13 28.1 °F 16.4 °F 30.67 in NNE 5.9 mph 8.1 mph 61 % 0.00 in
05:18 28.1 °F 16.4 °F 30.67 in NNE 3.4 mph 7.0 mph 61 % 0.00 in
05:23 28.1 °F 16.4 °F 30.67 in NNE 3.1 mph 9.2 mph 61 % 0.00 in
05:28 28.0 °F 15.9 °F 30.67 in NNE 6.5 mph 10.4 mph 60 % 0.00 in
05:33 28.0 °F 15.9 °F 30.67 in NNE 6.0 mph 9.2 mph 60 % 0.00 in
05:38 28.0 °F 16.3 °F 30.67 in North 7.0 mph 9.2 mph 61 % 0.00 in
05:43 27.9 °F 16.2 °F 30.67 in NNE 2.8 mph 5.8 mph 61 % 0.00 in
05:48 27.9 °F 15.8 °F 30.66 in NNE 5.1 mph 8.1 mph 60 % 0.00 in
05:53 27.8 °F 16.1 °F 30.66 in North 7.5 mph 11.0 mph 61 % 0.00 in
05:58 27.8 °F 15.7 °F 30.66 in NE 3.1 mph 4.6 mph 60 % 0.00 in
06:03 27.8 °F 16.1 °F 30.66 in North 5.1 mph 7.0 mph 61 % 0.00 in
06:08 27.7 °F 16.4 °F 30.66 in NE 5.4 mph 9.2 mph 62 % 0.00 in
06:14 27.7 °F 16.4 °F 30.67 in NE 4.5 mph 6.9 mph 62 % 0.00 in
06:19 27.7 °F 16.7 °F 30.67 in NNE 6.3 mph 8.0 mph 63 % 0.00 in
06:24 27.6 °F 16.6 °F 30.66 in NE 7.1 mph 8.1 mph 63 % 0.00 in
06:29 27.6 °F 16.6 °F 30.66 in North 6.6 mph 10.4 mph 63 % 0.00 in
06:34 27.6 °F 16.6 °F 30.66 in NE 3.0 mph 9.0 mph 63 % 0.00 in
06:39 27.5 °F 16.9 °F 30.66 in NNE 4.4 mph 9.0 mph 64 % 0.00 in
06:44 27.5 °F 16.9 °F 30.67 in NE 3.0 mph 7.0 mph 64 % 0.00 in
06:49 27.4 °F 16.8 °F 30.66 in NE 3.0 mph 6.0 mph 64 % 0.00 in
06:54 27.4 °F 16.8 °F 30.66 in NE 1.0 mph 9.0 mph 64 % 0.00 in
06:59 27.3 °F 16.4 °F 30.66 in NNE 7.1 mph 10.4 mph 63 % 0.00 in
07:04 27.2 °F 16.3 °F 30.66 in NNE 2.0 mph 10.0 mph 63 % 0.00 in
07:09 27.2 °F 16.3 °F 30.66 in NNE 3.0 mph 8.0 mph 63 % 0.00 in
07:14 27.2 °F 16.3 °F 30.66 in NNE 5.0 mph 8.1 mph 63 % 0.00 in
07:19 27.1 °F 16.2 °F 30.66 in NNE 5.0 mph 10.0 mph 63 % 0.00 in
07:24 27.1 °F 16.2 °F 30.67 in NNE 5.0 mph 9.0 mph 63 % 0.00 in
07:29 27.1 °F 16.2 °F 30.67 in NNE 3.0 mph 6.9 mph 63 % 0.00 in
07:34 27.1 °F 16.2 °F 30.67 in NNE 3.5 mph 8.1 mph 63 % 0.00 in
07:39 27.1 °F 16.1 °F 30.66 in NE 2.0 mph 5.0 mph 63 % 0.00 in
07:44 27.0 °F 16.8 °F 30.66 in NE 3.0 mph 6.0 mph 65 % 0.00 in
07:49 27.0 °F 16.4 °F 30.67 in NNE 3.3 mph 5.0 mph 64 % 0.00 in
07:54 27.0 °F 16.4 °F 30.67 in NNE 3.0 mph 7.0 mph 64 % 0.00 in
07:59 27.0 °F 16.4 °F 30.66 in NNE 3.8 mph 5.8 mph 64 % 0.00 in
08:04 27.0 °F 16.4 °F 30.66 in ENE 4.3 mph 5.8 mph 64 % 0.00 in
08:09 27.1 °F 16.5 °F 30.66 in NNE 3.4 mph 5.8 mph 64 % 0.00 in
08:14 27.1 °F 16.5 °F 30.67 in NNE 3.4 mph 6.0 mph 64 % 0.00 in
08:19 27.3 °F 16.7 °F 30.66 in NE 4.4 mph 5.8 mph 64 % 0.00 in
08:24 27.5 °F 16.9 °F 30.66 in NE 2.0 mph 3.5 mph 64 % 0.00 in
08:29 27.6 °F 16.6 °F 30.66 in NNE 3.9 mph 5.8 mph 63 % 0.00 in
08:34 27.8 °F 16.5 °F 30.66 in ENE 1.9 mph 3.5 mph 62 % 0.00 in
08:39 27.9 °F 16.9 °F 30.67 in NNE 2.8 mph 5.0 mph 63 % 0.00 in
08:45 28.1 °F 17.1 °F 30.66 in ENE 3.1 mph 5.8 mph 63 % 0.00 in
08:50 28.3 °F 16.9 °F 30.66 in ENE 3.7 mph 5.8 mph 62 % 0.00 in
08:55 28.5 °F 17.5 °F 30.66 in NE 3.5 mph 3.5 mph 63 % 0.00 in
09:00 28.6 °F 17.2 °F 30.66 in ENE 2.7 mph 4.6 mph 62 % 0.00 in
09:05 28.6 °F 17.6 °F 30.65 in NNE 2.5 mph 4.0 mph 63 % 0.00 in
09:10 28.8 °F 17.8 °F 30.66 in ENE 2.4 mph 3.5 mph 63 % 0.00 in
09:15 28.9 °F 17.9 °F 30.66 in ENE 4.0 mph 4.0 mph 63 % 0.00 in
09:20 29.2 °F 18.2 °F 30.66 in East 3.4 mph 5.8 mph 63 % 0.00 in
09:25 29.4 °F 18.0 °F 30.66 in East 3.2 mph 6.9 mph 62 % 0.00 in
09:30 29.6 °F 17.0 °F 30.66 in ENE 5.8 mph 9.2 mph 59 % 0.00 in
09:35 29.9 °F 17.3 °F 30.66 in ENE 4.6 mph 6.9 mph 59 % 0.00 in
09:40 30.1 °F 16.7 °F 30.66 in ENE 2.6 mph 3.5 mph 57 % 0.00 in
09:45 30.3 °F 16.5 °F 30.65 in ENE 5.8 mph 9.2 mph 56 % 0.00 in
09:51 30.4 °F 16.6 °F 30.66 in East 3.4 mph 6.9 mph 56 % 0.00 in
09:56 30.7 °F 17.3 °F 30.66 in East 2.8 mph 4.6 mph 57 % 0.00 in
10:01 31.1 °F 15.9 °F 30.65 in NE 3.2 mph 6.9 mph 53 % 0.00 in
10:06 31.4 °F 16.2 °F 30.65 in ENE 3.7 mph 7.0 mph 53 % 0.00 in
10:11 31.8 °F 15.7 °F 30.64 in ENE 5.4 mph 10.4 mph 51 % 0.00 in
10:16 32.0 °F 15.9 °F 30.64 in ENE 5.8 mph 9.2 mph 51 % 0.00 in
10:21 32.0 °F 16.3 °F 30.64 in East 4.8 mph 6.9 mph 52 % 0.00 in
10:26 32.0 °F 15.4 °F 30.65 in ENE 5.7 mph 8.1 mph 50 % 0.00 in
10:31 31.9 °F 15.3 °F 30.65 in ENE 3.2 mph 8.1 mph 50 % 0.00 in
10:36 31.9 °F 14.4 °F 30.65 in East 2.9 mph 5.8 mph 48 % 0.00 in
10:41 32.0 °F 15.0 °F 30.64 in East 2.1 mph 5.0 mph 49 % 0.00 in
10:46 31.8 °F 14.8 °F 30.64 in East 3.1 mph 5.0 mph 49 % 0.00 in
10:51 31.6 °F 14.6 °F 30.63 in ENE 3.3 mph 4.6 mph 49 % 0.00 in
10:56 31.5 °F 15.9 °F 30.63 in ENE 0.7 mph 3.5 mph 52 % 0.00 in
11:02 31.5 °F 16.3 °F 30.62 in ENE 3.9 mph 7.0 mph 53 % 0.00 in
11:07 31.6 °F 16.4 °F 30.62 in ENE 3.7 mph 5.0 mph 53 % 0.00 in
11:12 31.5 °F 15.0 °F 30.61 in ENE 1.3 mph 3.5 mph 50 % 0.00 in
11:17 31.4 °F 15.3 °F 30.60 in ENE 2.6 mph 4.0 mph 51 % 0.00 in
11:22 31.4 °F 15.8 °F 30.60 in NE 4.0 mph 6.9 mph 52 % 0.00 in
11:27 31.5 °F 15.9 °F 30.58 in ENE 2.8 mph 3.5 mph 52 % 0.00 in
11:32 31.6 °F 15.1 °F 30.59 in ENE 3.9 mph 8.1 mph 50 % 0.00 in
11:37 31.7 °F 16.1 °F 30.58 in NNE 2.1 mph 4.0 mph 52 % 0.00 in
11:42 32.0 °F 16.8 °F 30.58 in NE 2.2 mph 3.5 mph 53 % 0.00 in
11:47 32.1 °F 16.0 °F 30.58 in NE 1.8 mph 3.5 mph 51 % 0.00 in
11:52 32.1 °F 16.4 °F 30.57 in ENE 2.2 mph 4.6 mph 52 % 0.00 in
11:57 32.1 °F 17.3 °F 30.57 in NNE 3.3 mph 5.8 mph 54 % 0.00 in
12:02 32.1 °F 17.3 °F 30.56 in NE 2.2 mph 4.0 mph 54 % 0.00 in
12:07 32.0 °F 17.2 °F 30.56 in ENE 2.8 mph 4.6 mph 54 % 0.00 in
12:12 31.9 °F 16.7 °F 30.56 in ENE 1.5 mph 4.6 mph 53 % 0.00 in
12:17 31.7 °F 16.9 °F 30.55 in ENE 1.4 mph 3.5 mph 54 % 0.00 in
12:22 31.8 °F 17.0 °F 30.55 in ENE 3.0 mph 4.0 mph 54 % 0.00 in
12:28 31.7 °F 16.9 °F 30.55 in NE 3.2 mph 4.6 mph 54 % 0.00 in
12:33 31.8 °F 17.5 °F 30.54 in NNE 2.1 mph 3.5 mph 55 % 0.00 in
12:38 31.8 °F 17.0 °F 30.53 in ENE 0.3 mph 3.5 mph 54 % 0.00 in
12:43 31.9 °F 17.5 °F 30.53 in NE 1.6 mph 3.5 mph 55 % 0.00 in
12:48 31.9 °F 16.7 °F 30.53 in ENE 1.9 mph 6.9 mph 53 % 0.00 in
12:53 31.8 °F 17.0 °F 30.52 in NE 2.4 mph 3.5 mph 54 % 0.00 in
12:58 31.8 °F 17.5 °F 30.52 in NE 2.4 mph 3.5 mph 55 % 0.00 in
13:03 31.8 °F 17.0 °F 30.53 in NE 0.8 mph 3.5 mph 54 % 0.00 in
13:08 31.8 °F 17.9 °F 30.53 in NNE 2.9 mph 5.8 mph 56 % 0.00 in
13:13 31.9 °F 17.5 °F 30.53 in NNE 0.8 mph 2.3 mph 55 % 0.00 in
13:18 31.9 °F 17.5 °F 30.53 in NNE 1.0 mph 3.5 mph 55 % 0.00 in
13:23 32.0 °F 17.6 °F 30.53 in North 1.7 mph 3.5 mph 55 % 0.00 in
13:28 32.1 °F 18.2 °F 30.53 in NE 1.0 mph 2.3 mph 56 % 0.00 in
13:34 32.1 °F 17.7 °F 30.53 in NE 1.4 mph 2.3 mph 55 % 0.00 in
13:39 32.2 °F 18.2 °F 30.53 in NE 0.1 mph 1.0 mph 56 % 0.00 in
13:44 32.3 °F 18.3 °F 30.52 in NE 0.4 mph 2.0 mph 56 % 0.00 in
13:49 32.3 °F 17.9 °F 30.51 in Calm   1.0 mph 55 % 0.00 in
13:54 32.3 °F 17.5 °F 30.51 in Calm   2.0 mph 54 % 0.00 in
13:59 32.4 °F 17.6 °F 30.51 in NE 0.2 mph   54 % 0.00 in
14:04 32.3 °F 17.5 °F 30.51 in Calm   1.0 mph 54 % 0.00 in
14:09 32.3 °F 17.5 °F 30.50 in Calm   1.0 mph 54 % 0.00 in
14:14 32.3 °F 17.5 °F 30.50 in Calm     54 % 0.00 in
14:19 32.3 °F 17.5 °F 30.50 in Calm   1.0 mph 54 % 0.00 in
14:24 32.2 °F 17.8 °F 30.49 in Calm   2.0 mph 55 % 0.00 in
14:29 32.1 °F 17.3 °F 30.49 in Calm     54 % 0.00 in
14:34 32.1 °F 17.7 °F 30.49 in Calm   3.0 mph 55 % 0.00 in
14:39 32.0 °F 17.6 °F 30.48 in NE 2.0 mph 3.0 mph 55 % 0.00 in
14:44 31.9 °F 18.0 °F 30.48 in NE 0.3 mph 1.2 mph 56 % 0.00 in
14:49 31.9 °F 18.4 °F 30.48 in Calm   2.0 mph 57 % 0.00 in
14:54 31.8 °F 18.3 °F 30.48 in Calm   2.0 mph 57 % 0.00 in
14:59 31.8 °F 18.3 °F 30.48 in NE 0.9 mph 2.3 mph 57 % 0.00 in
15:04 31.8 °F 18.3 °F 30.48 in Calm     57 % 0.00 in
15:09 31.7 °F 18.2 °F 30.48 in Calm     57 % 0.00 in
15:14 31.7 °F 18.6 °F 30.48 in NE 0.2 mph 1.2 mph 58 % 0.00 in
15:19 31.7 °F 18.6 °F 30.48 in Calm   1.2 mph 58 % 0.00 in
15:24 31.6 °F 18.9 °F 30.48 in Calm     59 % 0.00 in
15:29 31.6 °F 18.9 °F 30.48 in SW 0.5 mph 3.5 mph 59 % 0.00 in
15:34 31.5 °F 19.2 °F 30.48 in SW 1.3 mph 2.3 mph 60 % 0.00 in
15:39 31.5 °F 20.0 °F 30.49 in SW 2.6 mph 5.0 mph 62 % 0.00 in
15:45 31.3 °F 21.3 °F 30.49 in WSW 3.7 mph 6.9 mph 66 % 0.00 in
15:50 31.0 °F 22.4 °F 30.49 in SW 4.2 mph 6.0 mph 70 % 0.00 in
15:55 30.6 °F 23.0 °F 30.48 in SSW 1.4 mph 3.5 mph 73 % 0.00 in
16:00 30.3 °F 23.6 °F 30.48 in SSW 1.2 mph 3.0 mph 76 % 0.00 in
16:05 30.0 °F 24.0 °F 30.47 in Calm   2.3 mph 78 % 0.00 in
16:10 29.9 °F 24.2 °F 30.47 in SW 0.8 mph 3.5 mph 79 % 0.00 in
16:15 29.6 °F 24.2 °F 30.47 in SW 0.8 mph 2.3 mph 80 % 0.01 in
16:20 29.5 °F 24.4 °F 30.47 in SW 0.3 mph 2.3 mph 81 % 0.01 in
16:25 29.3 °F 24.5 °F 30.47 in SW 0.7 mph 2.3 mph 82 % 0.01 in
16:30 29.1 °F 24.6 °F 30.46 in Calm   1.0 mph 83 % 0.02 in
16:35 29.0 °F 24.8 °F 30.45 in Calm     84 % 0.02 in
16:40 28.9 °F 25.0 °F 30.46 in Calm     85 % 0.03 in
16:45 28.8 °F 25.1 °F 30.46 in SSW 0.1 mph   86 % 0.03 in
16:50 28.6 °F 24.9 °F 30.45 in Calm     86 % 0.03 in
16:55 28.4 °F 25.0 °F 30.45 in Calm   1.2 mph 87 % 0.03 in
17:00 28.3 °F 24.9 °F 30.44 in SSE 0.3 mph 1.2 mph 87 % 0.04 in
17:05 28.3 °F 24.9 °F 30.43 in SSE 0.1 mph 1.0 mph 87 % 0.04 in
17:11 28.2 °F 25.1 °F 30.43 in Calm     88 % 0.04 in
17:16 28.1 °F 25.0 °F 30.43 in Calm     88 % 0.03 in
17:21 28.1 °F 25.0 °F 30.43 in Calm     88 % 0.03 in
17:26 28.1 °F 25.0 °F 30.43 in Calm     88 % 0.03 in
17:31 28.0 °F 24.9 °F 30.43 in Calm     88 % 0.02 in
17:36 27.9 °F 24.8 °F 30.42 in Calm     88 % 0.03 in
17:41 27.9 °F 24.8 °F 30.42 in Calm     88 % 0.02 in
17:46 27.9 °F 24.8 °F 30.42 in Calm     88 % 0.02 in
17:51 27.9 °F 24.8 °F 30.42 in Calm     88 % 0.02 in
17:56 27.8 °F 24.7 °F 30.42 in Calm     88 % 0.01 in
18:01 27.8 °F 24.7 °F 30.41 in Calm     88 % 0.01 in
18:07 27.8 °F 25.0 °F 30.41 in Calm   1.2 mph 89 % 0.01 in
18:12 27.8 °F 25.0 °F 30.41 in Calm     89 % 0.02 in
18:17 27.8 °F 25.0 °F 30.41 in Calm     89 % 0.02 in
18:22 27.8 °F 25.0 °F 30.41 in Calm     89 % 0.02 in
18:27 27.8 °F 25.0 °F 30.41 in Calm     89 % 0.02 in
18:32 27.8 °F 25.0 °F 30.41 in Calm     89 % 0.02 in
18:37 27.8 °F 25.0 °F 30.41 in Calm     89 % 0.01 in
18:42 27.8 °F 25.0 °F 30.40 in Calm     89 % 0.01 in
18:47 27.8 °F 25.2 °F 30.41 in Calm     90 % 0.01 in
18:52 27.8 °F 25.2 °F 30.40 in Calm     90 % 0.01 in
18:57 27.9 °F 25.3 °F 30.40 in Calm     90 % 0.02 in
19:02 27.9 °F 25.3 °F 30.40 in Calm     90 % 0.02 in
19:07 27.9 °F 25.3 °F 30.40 in Calm     90 % 0.02 in
19:13 27.9 °F 25.3 °F 30.39 in Calm     90 % 0.01 in
19:18 28.0 °F 25.4 °F 30.39 in Calm     90 % 0.01 in
19:23 28.0 °F 25.4 °F 30.38 in Calm     90 % 0.01 in
19:28 28.0 °F 25.7 °F 30.38 in Calm     91 % 0.01 in
19:33 28.0 °F 25.7 °F 30.38 in Calm     91 % 0.01 in
19:38 28.0 °F 25.7 °F 30.38 in Calm     91 % 0.01 in
19:43 28.1 °F 25.8 °F 30.37 in Calm     91 % 0.01 in
19:48 28.1 °F 25.8 °F 30.37 in Calm     91 % 0.01 in
19:53 28.1 °F 25.8 °F 30.37 in Calm     91 % 0.01 in
19:58 28.1 °F 25.8 °F 30.36 in Calm     91 % 0.00 in
20:03 28.1 °F 25.8 °F 30.37 in Calm     91 % 0.00 in
20:08 28.1 °F 25.8 °F 30.37 in Calm     91 % 0.00 in
20:13 28.2 °F 25.9 °F 30.37 in Calm     91 % 0.00 in
20:18 28.2 °F 25.9 °F 30.37 in Calm     91 % 0.00 in
20:23 28.3 °F 26.0 °F 30.36 in Calm     91 % 0.00 in
20:28 28.3 °F 26.0 °F 30.36 in Calm     91 % 0.00 in
20:33 28.3 °F 26.0 °F 30.36 in Calm     91 % 0.00 in
20:39 28.3 °F 26.0 °F 30.36 in Calm     91 % 0.00 in
20:44 28.3 °F 26.0 °F 30.35 in Calm     91 % 0.00 in
20:49 28.4 °F 26.4 °F 30.35 in Calm     92 % 0.00 in
20:54 28.4 °F 26.4 °F 30.35 in Calm     92 % 0.00 in
20:59 28.4 °F 26.4 °F 30.35 in Calm     92 % 0.00 in
21:04 28.5 °F 26.5 °F 30.35 in Calm     92 % 0.00 in
21:09 28.5 °F 26.5 °F 30.34 in Calm     92 % 0.00 in
21:14 28.5 °F 26.5 °F 30.34 in Calm   1.0 mph 92 % 0.00 in
21:19 28.6 °F 26.6 °F 30.35 in Calm     92 % 0.00 in
21:24 28.7 °F 26.7 °F 30.35 in SSE 0.2 mph 1.2 mph 92 % 0.00 in
21:29 28.7 °F 26.7 °F 30.34 in Calm     92 % 0.00 in
21:34 28.8 °F 26.8 °F 30.35 in Calm   2.0 mph 92 % 0.00 in
21:39 28.8 °F 26.8 °F 30.34 in Calm   1.2 mph 92 % 0.00 in
21:44 28.8 °F 26.8 °F 30.34 in Calm   2.0 mph 92 % 0.00 in
21:49 28.9 °F 26.9 °F 30.34 in Calm   1.0 mph 92 % 0.00 in
21:54 28.9 °F 26.9 °F 30.33 in Calm     92 % 0.00 in
21:59 29.0 °F 27.0 °F 30.33 in Calm     92 % 0.00 in
22:04 29.0 °F 27.0 °F 30.33 in Calm     92 % 0.00 in
22:09 29.0 °F 27.0 °F 30.33 in SSE 0.1 mph 1.2 mph 92 % 0.00 in
22:14 29.1 °F 27.1 °F 30.32 in SSE 0.4 mph 2.3 mph 92 % 0.00 in
22:19 29.1 °F 27.1 °F 30.32 in SSE 0.1 mph 1.2 mph 92 % 0.00 in
22:24 29.1 °F 27.1 °F 30.32 in Calm     92 % 0.00 in
22:29 29.2 °F 27.2 °F 30.32 in Calm     92 % 0.00 in
22:34 29.2 °F 27.2 °F 30.31 in SSE 0.3 mph 1.2 mph 92 % 0.00 in
22:39 29.2 °F 27.2 °F 30.31 in Calm     92 % 0.00 in
22:44 29.3 °F 27.3 °F 30.31 in SSE 0.1 mph 1.2 mph 92 % 0.00 in
22:50 29.3 °F 27.5 °F 30.31 in SSE 0.1 mph 2.3 mph 93 % 0.00 in
22:55 29.4 °F 27.6 °F 30.30 in Calm   2.3 mph 93 % 0.00 in
22:59 29.4 °F 27.6 °F 30.30 in SSE 0.8 mph 2.3 mph 93 % 0.00 in
23:04 29.5 °F 27.7 °F 30.30 in SSE 0.2 mph 1.0 mph 93 % 0.00 in
23:10 29.5 °F 27.7 °F 30.30 in SSE 0.6 mph 2.3 mph 93 % 0.00 in
23:15 29.5 °F 27.7 °F 30.30 in Calm   1.2 mph 93 % 0.00 in
23:20 29.6 °F 27.8 °F 30.30 in SSE 0.1 mph 1.2 mph 93 % 0.00 in
23:25 29.6 °F 27.8 °F 30.30 in Calm     93 % 0.00 in
23:30 29.6 °F 27.8 °F 30.29 in Calm     93 % 0.00 in
23:35 29.6 °F 27.8 °F 30.29 in Calm     93 % 0.00 in
23:40 29.6 °F 27.8 °F 30.29 in Calm   1.2 mph 93 % 0.00 in
23:45 29.7 °F 27.9 °F 30.29 in Calm     93 % 0.00 in
23:50 29.7 °F 27.9 °F 30.28 in Calm     93 % 0.00 in
23:55 29.7 °F 27.9 °F 30.28 in Calm   1.2 mph 93 % 0.00 in
Crab Meadow Weather
Compliments of Weather Underground - 3 mb

Script developed by  Jim McMurry - jmcmurry@mwt.net Adapted for the template by  Wim van der Kuil - Leuven-Template.eu

Weather Terms: Watch - A watch is used when the risk of a hazardous weather or hydrologic event has increased significantly, but its occurrence, location or timing is still uncertain. It is intended to provide enough lead time so those who need to set their plans in motion can do so. A watch means that hazardous weather is possible. People should have a plan of action in case a storm threatens and they should listen for later information and possible warnings especially when planning travel or outdoor activities.